FW0743 Weather Reports


time (UTC)temp
F
wind
direction
speed
knots
gust
knots
rain 1hr
in
rain 24hr
in
rain mn
in
humidity
%
barometer
mb
20260831230019 64 175 3.5 7.0 0.00 0.01 0.01 91 1017.7
20260831224512 65 161 0.9 4.3 0.00 0.01 0.01 90 1017.9
20260831223019 65 161 1.7 7.8 0.00 0.01 0.01 90 1018.0
20260831221523 65 159 3.5 9.6 0.00 0.01 0.01 90 1018.0
20260831220025 65 185 2.6 7.0 0.00 0.01 0.01 90 1018.1
20260831214508 65 137 2.6 6.1 0.00 0.01 0.01 90 1018.1
20260831213014 64 143 1.7 6.1 0.00 0.01 0.01 91 1018.2
20260831211520 64 173 1.7 8.7 0.00 0.01 0.01 91 1018.4
20260831210025 64 153 3.5 7.8 0.00 0.01 0.01 91 1018.5
20260831204523 64 149 5.2 8.7 0.00 0.01 0.01 91 1018.6
20260831203013 64 161 4.3 9.6 0.00 0.01 0.01 91 1018.7
20260831201528 64 199 1.7 8.7 0.00 0.01 0.01 90 1018.6
20260831200038 64 136 4.3 10.4 0.00 0.01 0.01 90 1018.7
20260831194531 64 144 4.3 12.2 0.00 0.01 0.01 89 1018.8
20260831193037 64 183 4.3 10.4 0.00 0.01 0.01 90 1018.8
20260831191533 64 136 5.2 11.3 0.00 0.01 0.01 89 1019.0
20260831190029 65 135 7.0 10.4 0.00 0.03 0.01 88 1019.3
20260831184529 66 181 3.5 7.8 0.00 0.03 0.01 87 1019.4
20260831183029 66 187 0.9 5.2 0.00 0.05 0.01 89 1019.4
20260831181528 66 195 1.7 6.1 0.00 0.09 0.01 90 1019.6
20260831180042 66 170 0.9 6.1 0.00 0.12 0.01 90 1019.6
20260831174532 65 172 2.6 7.8 0.00 0.17 0.01 90 1019.9
20260831173027 66 134 3.5 7.0 0.01 0.17 0.01 91 1020.1
20260831171508 66 167 1.7 6.1 0.01 0.17 0.01 92 1020.0
20260831170013 66 132 1.7 4.3 0.01 0.17 0.01 93 1020.3
20260831164535 65 170 3.5 7.0 0.01 0.17 0.01 92 1020.3
20260831163027 66 180 0.9 6.1 0.00 0.16 0.00 92 1020.4
20260831161530 66 178 2.6 7.8 0.00 0.16 0.00 89 1020.6
20260831160013 66 163 1.7 6.1 0.00 0.16 0.00 89 1020.6
20260831154544 66 186 4.3 7.8 0.00 0.16 0.00 89 1020.6
20260831153027 66 153 4.3 7.0 0.00 0.16 0.00 91 1020.4
20260831151527 65 200 1.7 7.8 0.00 0.16 0.00 92 1020.5
20260831150012 65 153 1.7 8.7 0.00 0.16 0.00 92 1020.5
20260831144517 65 146 3.5 9.6 0.00 0.16 0.00 93 1020.4
20260831143022 65 163 3.5 9.6 0.00 0.16 0.00 95 1020.4
20260831141527 64 155 2.6 7.0 0.00 0.16 0.00 96 1020.3
20260831140031 63 106 1.7 7.8 0.00 0.16 0.00 97 1020.3
20260831134512 63 183 4.3 9.6 0.00 0.16 0.00 98 1020.3
20260831133016 62 182 2.6 5.2 0.00 0.16 0.00 98 1020.5
20260831131525 62 165 0.9 5.2 0.00 0.16 0.00 98 1020.5
20260831130030 61 130 2.6 6.1 0.00 0.16 0.00 98 1020.5
20260831124531 61 192 1.7 4.3 0.00 0.16 0.00 98 1020.6
20260831123013 61 159 2.6 5.2 0.00 0.16 0.00 98 1020.3
20260831121521 61 188 1.7 4.3 0.00 0.16 0.00 98 1020.8
20260831120035 60 188 0.9 2.6 0.00 0.16 0.00 98 1020.9
20260831114536 60 241 0.9 2.6 0.00 0.16 0.00 98 1020.9
20260831113035 60 241 0.9 2.6 0.00 0.16 0.00 98 1020.8
20260831111519 60 241 0.9 2.6 0.00 0.16 0.00 98 1020.7
20260831110025 59 241 0.0 1.7 0.00 0.16 0.00 98 1020.7
20260831104546 59 241 0.0 0.0 0.00 0.16 0.00 98 1020.6
20260831103031 60 241 0.0 0.0 0.00 0.16 0.00 98 1020.5
20260831101536 60 241 0.0 0.0 0.00 0.16 0.00 98 1020.3
20260831100018 60 241 0.0 1.7 0.00 0.16 0.00 98 1020.2
20260831094530 60 241 0.0 0.9 0.00 0.16 0.00 98 1020.1
20260831093040 60 241 0.0 0.0 0.00 0.16 0.00 98 1020.2
20260831091530 60 241 0.0 1.7 0.00 0.16 0.00 98 1020.2
20260831090039 60 241 0.0 1.7 0.00 0.16 0.00 98 1020.2
20260831084524 60 241 0.0 0.9 0.00 0.16 0.00 98 1020.3
20260831083031 60 241 0.0 0.9 0.00 0.16 0.00 98 1020.3
20260831081531 60 241 0.0 0.0 0.00 0.16 0.00 98 1020.4
20260831080036 60 241 0.0 0.9 0.00 0.16 0.00 98 1020.4
20260831074533 60 241 0.0 1.7 0.00 0.16 0.00 98 1020.2
20260831073029 60 241 0.0 1.7 0.00 0.16 0.00 98 1020.1
20260831071533 60 241 0.0 0.0 0.00 0.16 0.00 98 1020.4
20260831070038 60 241 0.0 1.7 0.00 0.16 0.00 98 1020.3
20260831064537 60 241 0.0 0.9 0.00 0.16 0.00 98 1020.2
20260831063025 61 241 0.0 0.9 0.00 0.16 0.00 98 1020.2
20260831061529 61 241 0.0 0.9 0.00 0.16 0.00 98 1020.3
20260831060030 61 241 0.0 0.0 0.00 0.16 0.00 98 1020.4
20260831054534 61 241 0.0 1.7 0.00 0.16 0.00 98 1020.5
20260831053035 61 241 0.0 0.9 0.00 0.16 0.00 98 1020.6
20260831051504 61 241 0.0 0.9 0.00 0.16 0.00 98 1020.9
20260831050007 61 241 0.0 1.7 0.00 0.16 0.00 98 1021.1
20260831044513 61 241 0.0 0.0 0.00 0.16 0.00 98 1021.0
20260831043019 61 241 0.0 0.9 0.00 0.16 0.00 98 1020.9
20260831041504 61 241 0.0 0.9 0.00 0.16 0.00 98 1020.8
20260831040006 61 241 0.0 0.0 0.00 0.16 0.00 98 1020.9
20260831034508 61 241 0.0 0.9 0.00 0.16 0.16 98 1020.9
20260831033014 61 241 0.0 0.9 0.00 0.16 0.16 98 1020.8
20260831031521 61 241 0.0 0.9 0.00 0.16 0.16 98 1020.5
20260831030004 61 241 0.0 1.7 0.00 0.16 0.16 98 1020.5
20260831024506 61 198 0.0 1.7 0.00 0.16 0.16 98 1020.5
20260831023014 61 198 0.0 1.7 0.00 0.16 0.16 98 1020.5
20260831021520 61 198 0.0 0.9 0.00 0.16 0.16 98 1020.5
20260831020025 61 198 0.0 0.0 0.00 0.16 0.16 98 1020.6
20260831014506 61 198 0.0 0.9 0.00 0.16 0.16 97 1020.5
20260831013011 61 198 0.0 0.9 0.00 0.16 0.16 97 1020.4
20260831011516 62 198 0.0 2.6 0.00 0.16 0.16 97 1020.4
20260831010025 62 260 1.7 3.5 0.00 0.16 0.16 97 1020.2
20260831004527 62 238 0.9 2.6 0.00 0.16 0.16 97 1020.3
20260831003008 62 202 0.9 3.5 0.00 0.16 0.16 97 1020.1
20260831001512 62 263 0.9 1.7 0.00 0.16 0.16 97 1019.9
20260831000021 62 243 0.0 2.6 0.00 0.16 0.16 97 1019.8
20260830234550 62 285 0.0 2.6 0.00 0.16 0.16 97 1019.6
20260830233033 62 263 0.0 5.2 0.00 0.16 0.16 97 1019.4
20260830231513 63 267 0.9 2.6 0.00 0.16 0.16 97 1019.4